Regional Weather Roundup
Issued by NWS

Home | Current Version | Previous Version | Text Only | Print | Product List | Glossary Off
Versions: 1 2 3 4 5 6 7 8 9 10 11 12 13 14 15 16 17 18 19 20 21 22 23 24 25 26 27 28 29 30 31 32 33 34 35 36 37 38 39 40 41 42 43 44 45 46 47 48 49 50

000
ASUS45 KABQ 221201
RWRNM
NEW MEXICO REGIONAL WEATHER ROUNDUP
NATIONAL WEATHER SERVICE ALBUQUERQUE NM
600 AM MDT THU JUN 22 2017

NOTE: "FAIR" MEANS FEW OR NO CLOUDS BELOW 12,000 FEET AGL WITH NO
       SIGNIFICANT WEATHER OR OBSTRUCTIONS TO VISION.

      THIS PRODUCT IS RELEASED AS TWO VERSIONS.  ONE VERSION NEAR
      THE TOP OF THE HOUR CONTAINING PRELIMINARY DATA FROM ALBUQUERQUE
      AND OTHER STATIONS.  A FINAL VERSION WITH ADDITIONAL DATA IS
      ISSUED ABOUT 10 MINUTES AFTER THE HOUR.

NMZ501-503-504-510>518-221300-
NORTHWEST PLATEAU/NORTHCENTRAL MOUNTAINS

CITY           SKY/WX    TMP DP  RH WIND       PRES   REMARKS
FARMINGTON     FAIR      64  38  38 E8        29.99R
6HR MIN TEMP:  61; 6HR MAX TEMP:  74;

LOS ALAMOS     FAIR      67  42  39 SW10      30.18R
SANTA FE       FAIR      69  46  43 SE9       30.10R
6HR MIN TEMP:  69; 6HR MAX TEMP:  78;

TAOS           FAIR      52  28  40 N3        30.18R
ANGEL FIRE     FAIR      43  38  84 NE9       30.30R

$$
NMZ402-403-502-505>509-221300-
WESTCENTRAL MOUNTAINS/SOUTHWEST MOUNTAINS

CITY           SKY/WX    TMP DP  RH WIND       PRES   REMARKS
GALLUP         FAIR      56  32  40 CALM      30.09R
6HR MIN TEMP:  54; 6HR MAX TEMP:  72;

GRANTS         FAIR      55  30  38 NW7       30.12R
SILVER CITY    FAIR      68  53  60 NW9       30.03F

$$
NMZ407-409-411-412-221300-
SOUTHERN DESERTS

CITY           SKY/WX    TMP DP  RH WIND       PRES   REMARKS
DEMING         FAIR      71  52  50 S7        29.94S
6HR MIN TEMP:  71; 6HR MAX TEMP:  80;

LAS CRUCES     FAIR      73  46  38 W7        29.96R
HOLLOMAN AFB   FAIR      72  47  40 NW5       29.94R
ALAMOGORDO     FAIR      72  46  40 N8        29.93R
T OR C         FAIR      72  48  42 W5        29.96S
6HR MIN TEMP:  72; 6HR MAX TEMP:  83;


$$
NMZ519>523-221300-
CENTRAL VALLEYS/CENTRAL HIGHLANDS

CITY           SKY/WX    TMP DP  RH WIND       PRES   REMARKS
ALBUQUERQUE    FAIR      78  45  30 E12       30.01R
6HR MIN TEMP:  76; 6HR MAX TEMP:  85;

DOUBLE EAGLE   MOCLDY    68  43  40 CALM      30.05S
MORIARTY ARPT  FAIR      64  47  53 SE10      30.10S
6HR MIN TEMP:  63; 6HR MAX TEMP:  77;

CLINES CORNERS FAIR      58  46  64 E7        30.17F
6HR MIN TEMP:  57; 6HR MAX TEMP:  68;

BELEN          NOT AVBL
SOCORRO        FAIR      72  41  32 W6        29.98R
6HR MIN TEMP:  70; 6HR MAX TEMP:  79;


$$
NMZ524>526-539-540-221300-
SOUTHCENTRAL MOUNTAINS

CITY           SKY/WX    TMP DP  RH WIND       PRES   REMARKS
RUIDOSO        FAIR      63  46  55 S10       30.15F

$$
NMZ527>531-221300-
NORTHEAST HIGHLANDS/NORTHEAST PLAINS

CITY           SKY/WX    TMP DP  RH WIND       PRES   REMARKS
LAS VEGAS      FAIR      58  46  64 W3        30.16F
6HR MIN TEMP:  55; 6HR MAX TEMP:  68;

RATON          FAIR      58  53  84 CALM      30.12F
6HR MIN TEMP:  54; 6HR MAX TEMP:  68;

CLAYTON        FAIR      63  56  78 W17       29.95F
6HR MIN TEMP:  61; 6HR MAX TEMP:  69;


$$
NMZ532>537-221300-
EASTCENTRAL PLAINS

CITY           SKY/WX    TMP DP  RH WIND       PRES   REMARKS
TUCUMCARI      FAIR      62  57  83 N6        29.92F
6HR MIN TEMP:  60; 6HR MAX TEMP:  76;

CANNON AFB     FAIR      62  61  95 N5        29.94F
6HR MIN TEMP:  62; 6HR MAX TEMP:  71;

CLOVIS AIRPORT NOT AVBL

$$
NMZ028-029-538-221300-
SOUTHEAST PLAINS

CITY           SKY/WX    TMP DP  RH WIND       PRES   REMARKS
ROSWELL        FAIR      71  57  61 SW6       29.91S
6HR MIN TEMP:  68; 6HR MAX TEMP:  82; 6HR PCP:  0.01;

ARTESIA        FAIR      72  57  60 W7        29.91S
CARLSBAD       FAIR      71  64  78 CALM      29.87S
6HR MIN TEMP:  71; 6HR MAX TEMP:  81; 6HR PCP: TRACE;

HOBBS          CLEAR     70  55  60 NE3       29.90R


$$




USA.gov is the U.S. government's official web portal to all federal, state and local government web resources and services.